Flag for American Samoa Weather past 2 weeks in Pago Pago, American Samoa

Now
85 °F

Broken clouds.


Feels Like: 95 °F
Forecast: 77 / 83 °F
Wind: 15 mph from Southeast

Location: Pago Pago / Int. Airp.

Current Time: Sep 23, 2014 at 2:02:08 PM

Latest Report: Sep 23, 2014 at 12:50 PM


Visibility: 12 mi

Pressure: 29.91 "Hg

Humidity: 77%

Dew point: 77 °F

Location of Pago PagoLocation

Historic Weather in Pago Pago — Graph

°F

Pago Pago temperature yesterday

Maximum temperature yesterday: 86 °F (at 1:51 PM)
Minimum temperature yesterday: 76 °F (at 5:52 AM)
Average temperature yesterday: 81 °F

Past Weeks' High & Low Weather Summary

 TemperatureHumidityPressure
High89 °F (Sep 20, 12:50 PM)100% (Sep 14, 7:50 PM)29.99 "Hg (Sep 14, 7:50 PM)
Low75 °F (Sep 18, 4:55 PM)66% (Sep 21, 2:58 PM)29.80 "Hg (Sep 14, 3:57 AM)
Average81 °F84%29.90 "Hg
* Reported Sep 8 12:50 PM — Sep 23 12:50 PM, Pago Pago, Weather by CustomWeather, © 2014

Note: Actual official high and low records may vary slightly from our data, if they occured in-between our weather recording intervals... More about our weather records

Advertising

Pago Pago weather history for previous 24 hours

 ConditionsComfort  
Time TempWeatherWind HumidityBarometerVisibility
12:50 PM
Sep 23
85 °FBroken clouds.15 mph77%29.91 "Hg12 mi
11:54 AM83 °FBroken clouds.18 mph80%29.93 "Hg12 mi
10:52 AM83 °FBroken clouds.15 mph81%29.95 "Hg12 mi
9:50 AM82 °FBroken clouds.17 mph84%29.96 "Hg12 mi
8:55 AM80 °FBroken clouds.20 mph89%29.96 "Hg12 mi
6:55 AM77 °FSprinkles. Cloudy.20 mph94%29.93 "Hg10 mi
5:55 AM78 °FMostly cloudy.17 mph91%29.91 "Hg10 mi
4:50 AM77 °FOvercast.20 mph94%29.90 "Hg10 mi
3:50 AM77 °FOvercast.20 mph93%29.89 "Hg10 mi
2:50 AM78 °FOvercast.20 mph91%29.88 "Hg10 mi
1:54 AM78 °FPartly cloudy.22 mph91%29.90 "Hg10 mi
12:50 AM77 °FSprinkles. Overcast.14 mph96%29.93 "Hg5 mi
11:51 PM
Sep 22
76 °FSprinkles. Overcast.12 mph97%29.94 "Hg7 mi
10:54 PM76 °FLight rain. Passing clouds.14 mph96%29.96 "Hg10 mi
9:57 PM78 °FPassing clouds.15 mph93%29.96 "Hg7 mi
8:56 PM79 °FPartly cloudy.17 mph89%29.95 "Hg10 mi
7:50 PM79 °FPartly cloudy.15 mph89%29.95 "Hg10 mi
6:50 PM80 °FPartly cloudy.13 mph89%29.91 "Hg10 mi
5:51 PM81 °FBroken clouds.10 mph86%29.88 "Hg12 mi
4:53 PM82 °FBroken clouds.9 mph79%N/A12 mi
3:51 PM82 °FBroken clouds.9 mph81%29.86 "Hg12 mi
2:56 PM84 °FBroken clouds.10 mph77%29.86 "Hg12 mi
Weather by CustomWeather, © 2014

See weather overviewHow to use our weather pages